Location: Hodgson Observatory
(42.9992°N, 96.7577°W)
Time: 19:00:13
(UTC-05:00)

Daily predictions for brighter satellites

Satellite Brightness Start Highest point End
(mag) Time Altitude Azimuth Time Altitude Azimuth Time Altitude Azimuth
H-2A R/B 3.6 21:40:15 10° ESE 21:44:20 23° ENE 21:48:30 10° NNE
NOSS 3-4 (A) 4.4 21:39:03 10° NW 21:45:56 55° WSW 21:53:14 10° SSE
NOSS 3-4 (C) 4.4 21:39:08 10° NW 21:46:02 56° WSW 21:53:20 10° SSE
Cosmos 1741 Rocket 4.0 21:41:50 10° S 21:47:07 72° ESE 21:52:26 10° NNE
Cosmos 1726 3.7 21:46:12 10° NNE 21:49:00 20° ENE 21:51:46 10° ESE
Cosmos 1818 3.7 21:43:40 10° NW 21:49:09 84° WSW 21:54:34 10° SSE
Cosmos 2263 Rocket 4.0 21:48:14 10° ESE 21:50:17 12° E 21:52:21 10° ENE
Cosmos 1300 4.5 21:49:55 10° NNE 21:52:39 18° ENE 21:55:22 10° ESE
RESURS DK-1 3.5 21:49:13 10° N 21:52:59 32° ENE 21:56:44 10° ESE
Meteor 1-21 Rocket 4.4 21:47:53 10° S 21:53:23 53° E 21:58:48 10° NNE
ATLAS 5 CENTAUR R/B 1.8 21:48:50 10° SW 21:53:29 88° NW 21:58:36 10° NE
Cosmos 1076 Rocket 3.6 21:52:13 10° S 21:56:29 58° E 22:00:47 10° NNE
Cosmos 1408 Rocket 4.1 21:56:12 10° SSE 22:00:11 39° E 22:04:13 10° NNE
ERBS 3.9 22:00:05 10° NNW 22:03:05 28° NNE 22:06:03 10° E
Cosmos 1802 Rocket 4.1 21:59:13 10° N 22:05:19 63° E 22:11:23 10° SSE
Cosmos 1939 Rocket 4.2 22:03:19 10° SSW 22:07:04 38° W 22:10:54 10° NNW
CZ-4B DEB 3.7 22:04:21 10° S 22:07:11 41° W 22:10:02 10° NNW
Cosmos 2237 Rocket 4.3 22:04:32 10° NW 22:08:49 23° W 22:13:06 10° SSW
Cosmos 1340 Rocket 4.1 22:05:17 10° SSW 22:09:08 43° WNW 22:13:03 10° N
Cosmos 2221 3.0 22:05:22 10° NNW 22:09:44 65° W 22:14:04 10° S
Tiangong 1 0.7 22:07:32 10° W 22:10:21 88° S 22:13:08 10° E
Meteor 1-29 3.8 22:08:26 10° N 22:11:48 52° WNW 22:15:09 10° SSW
Cosmos 1603 3.8 22:11:56 10° NNW 22:17:35 65° ENE 22:22:24 14° SE
Cosmos 1674 2.9 22:15:32 10° SSW 22:19:17 70° W 22:23:02 10° N
Cosmos 371 Rocket 3.8 22:17:32 10° N 22:22:10 45° ENE 22:25:49 16° SE
MetOp-A 4.2 22:21:50 10° SSE 22:27:12 84° WSW 22:32:35 10° NNW
Cosmos 1908 4.0 22:23:28 10° NNW 22:27:14 50° W 22:30:58 10° S
ARGOS 3.2 22:24:14 12° SSE 22:29:16 80° ENE 22:34:43 10° NNW
Cosmos 841 Rocket 4.4 22:25:22 10° N 22:30:14 36° ENE 22:33:53 16° ESE
SPOT 5 2.9 22:26:16 14° SSE 22:30:29 75° ENE 22:35:37 10° N
Lacrosse 5 1.9 22:25:33 10° NW 22:30:38 86° NE 22:34:30 17° SE
Cosmos 2016 Rocket 4.0 22:25:26 10° N 22:31:44 83° E 22:37:34 12° S
Cosmos 1763 Rocket 4.0 22:26:59 10° N 22:31:55 46° ENE 22:35:29 18° SE
Cosmos 1943 3.8 22:27:11 10° NNW 22:32:36 44° ENE 22:36:46 16° SE
SL-16 R/B 3.6 22:29:04 10° NW 22:34:06 34° WSW 22:39:06 10° SSW
Abrixas rocket 2.5 22:33:10 10° WNW 22:36:24 63° NNE 22:38:41 18° E
KORONAS-FOTON 4.1 22:32:56 10° SSW 22:36:43 65° W 22:40:30 10° N
Cosmos 1766 Rocket 3.7 22:33:15 10° SSW 22:37:33 75° W 22:41:56 10° N
Cosmos 1242 Rocket 3.9 22:34:08 10° NNW 22:37:37 38° W 22:41:03 10° SSW
SPOT 1/Viking Rocket 3.6 22:35:08 17° SSE 22:39:08 67° ENE 22:44:16 10° N
Cosmos 1328 Rocket 3.5 22:37:43 10° N 22:42:04 68° E 22:44:57 20° SSE
USA 245 3.4 22:44:50 18° S 22:47:14 68° W 22:51:30 10° NNW
Cosmos 1515 Rocket 3.7 22:43:47 10° N 22:48:03 56° E 22:50:32 23° SSE
Cosmos 1151 Rocket 3.6 22:44:05 10° N 22:48:17 43° ENE 22:50:35 23° SE
YAOGAN 11 4.4 22:45:54 15° S 22:49:32 68° WSW 22:54:05 10° NNW
Landsat 7 4.1 22:47:28 21° SE 22:50:28 57° ENE 22:55:09 10° N
IGS 5A 4.4 22:48:26 21° ESE 22:50:32 34° ENE 22:54:19 10° N
H-2A R/B 3.2 22:51:01 20° ESE 22:53:09 31° ENE 22:56:53 10° N
Cosmos 1743 Rocket 3.4 22:50:21 17° S 22:53:38 73° E 22:57:58 10° NNE
Cosmos 2233 Rocket 4.2 22:49:56 10° N 22:56:03 57° ENE 23:00:00 22° SSE
Cosmos 2228 Rocket 3.1 22:52:00 10° N 22:56:36 89° ENE 22:59:35 22° S
Cosmos 1703 4.1 22:57:47 27° SE 22:59:04 34° E 23:02:42 10° NNE
USA 234 3.2 22:55:54 10° NE 23:02:28 77° SE 23:09:00 10° SW
SL-08 RB Rocket 4.2 23:00:01 17° S 23:03:23 57° W 23:07:56 10° NNW
Terra 2.1 23:02:53 26° SE 23:05:25 56° ENE 23:10:05 10° N
Meteor 1-11 4.3 23:06:01 18° S 23:10:21 73° E 23:16:10 10° NNE
Cosmos 332 Rocket 4.5 23:07:57 10° NNW 23:12:41 48° WSW 23:15:45 20° S
Cosmos 1503 Rocket 4.3 23:12:35 27° SSE 23:15:02 47° ESE 23:19:58 10° NNE
Cosmos 1447 Rocket 4.5 23:14:04 20° S 23:18:36 76° E 23:24:58 10° N
Cosmos 1626 2.1 23:19:15 41° SSE 23:20:21 63° E 23:24:03 10° NNE
Cosmos 2058 2.8 23:21:05 31° S 23:23:02 83° E 23:27:17 10° N
H-2A R/B 2.7 23:19:43 19° S 23:23:20 52° W 23:28:40 10° NNW
Cosmos 304 Rocket 4.1 23:18:41 10° NNW 23:23:24 56° ENE 23:25:22 32° SE
Cosmos 1726 4.0 23:21:15 10° NW 23:24:17 24° W 23:26:41 13° SW
Meteor 1-27 4.3 23:18:59 10° N 23:24:49 85° W 23:28:05 27° S
Cosmos 1300 4.3 23:25:03 10° NNW 23:28:25 30° W 23:30:39 17° SW
CZ-4B R/B 4.0 23:24:42 10° NNE 23:29:44 43° E 23:31:26 33° SE
RESURS DK-1 4.2 23:27:32 10° NW 23:30:53 24° WSW 23:32:49 17° SW
Cosmos 540 Rocket 3.7 23:26:11 10° NNW 23:31:17 58° ENE 23:33:24 33° SE
Cosmos 2263 Rocket 2.1 23:28:33 14° SSW 23:33:19 90° WNW 23:38:57 10° NNE
Spot 4 4.1 23:34:13 35° SE 23:36:05 58° ENE 23:40:53 10° N
Sich 1 3.9 23:36:53 30° ESE 23:37:20 31° E 23:41:06 10° NNE
ERBS 3.4 23:36:42 10° WNW 23:39:45 32° SW 23:39:46 32° SW
PSLV R/B 3.1 23:40:58 67° NE 23:40:58 67° NE 23:43:37 10° N
COSMOS 2406 4.5 23:36:47 10° N 23:41:48 31° NE 23:44:53 19° ESE
Cosmos 2285 Rocket 4.0 23:37:08 10° NNW 23:43:30 85° ENE 23:46:33 34° SSE
deb Chang Zheng 4 3.5 23:40:56 10° NNE 23:45:20 83° ESE 23:46:50 41° S
Tiangong 1 2.5 23:43:08 10° W 23:44:32 25° W 23:44:32 25° W
Cosmos 2034 Rocket 4.5 23:42:49 10° N 23:48:57 49° ENE 23:51:34 31° SE
ALOS 2 4.5 23:48:17 16° E 23:49:41 19° ENE 23:52:45 10° NNE
Cosmos 1707 Rocket 3.8 23:45:37 10° N 23:50:02 56° E 23:51:03 44° SE
DELTA 2 DEB (DPAF) 4.2 23:48:50 44° SE 23:50:04 64° ENE 23:54:29 10° N
Cosmos 2151 4.0 23:47:34 20° SW 23:50:09 42° WNW 23:54:15 10° N
